Index of /20260508/WXO-DD/model_rdps/10km/00/053
Name Last modified Size Description
Parent Directory -
20260508T00Z_MSC_RDPS_AbsoluteVorticity_IsbL-0250_RLatLon0.09_PT053H.grib2 2026-05-08 02:56 608K
20260508T00Z_MSC_RDPS_AbsoluteVorticity_IsbL-0500_RLatLon0.09_PT053H.grib2 2026-05-08 02:56 568K
20260508T00Z_MSC_RDPS_AbsoluteVorticity_IsbL-0700_RLatLon0.09_PT053H.grib2 2026-05-08 02:56 624K
20260508T00Z_MSC_RDPS_AbsoluteVorticity_IsbL-0850_RLatLon0.09_PT053H.grib2 2026-05-08 02:56 784K
20260508T00Z_MSC_RDPS_AirTemp_AGL-120m_RLatLon0.09_PT053H.grib2 2026-05-08 02:56 372K
20260508T00Z_MSC_RDPS_AirTemp_AGL-2m_RLatLon0.09_PT053H.grib2 2026-05-08 02:56 616K
20260508T00Z_MSC_RDPS_AirTemp_AGL-40m_RLatLon0.09_PT053H.grib2 2026-05-08 02:56 387K
20260508T00Z_MSC_RDPS_AirTemp_AGL-80m_RLatLon0.09_PT053H.grib2 2026-05-08 02:56 378K
20260508T00Z_MSC_RDPS_AirTemp_IsbL-0001_RLatLon0.09_PT053H.grib2 2026-05-08 02:56 229K
20260508T00Z_MSC_RDPS_AirTemp_IsbL-0005_RLatLon0.09_PT053H.grib2 2026-05-08 02:56 377K
20260508T00Z_MSC_RDPS_AirTemp_IsbL-0010_RLatLon0.09_PT053H.grib2 2026-05-08 02:56 298K
20260508T00Z_MSC_RDPS_AirTemp_IsbL-0020_RLatLon0.09_PT053H.grib2 2026-05-08 02:56 315K
20260508T00Z_MSC_RDPS_AirTemp_IsbL-0030_RLatLon0.09_PT053H.grib2 2026-05-08 02:56 330K
20260508T00Z_MSC_RDPS_AirTemp_IsbL-0050_RLatLon0.09_PT053H.grib2 2026-05-08 02:56 307K
20260508T00Z_MSC_RDPS_AirTemp_IsbL-0100_RLatLon0.09_PT053H.grib2 2026-05-08 02:56 428K
20260508T00Z_MSC_RDPS_AirTemp_IsbL-0150_RLatLon0.09_PT053H.grib2 2026-05-08 02:56 414K
20260508T00Z_MSC_RDPS_AirTemp_IsbL-0175_RLatLon0.09_PT053H.grib2 2026-05-08 02:56 409K
20260508T00Z_MSC_RDPS_AirTemp_IsbL-0200_RLatLon0.09_PT053H.grib2 2026-05-08 02:56 412K
20260508T00Z_MSC_RDPS_AirTemp_IsbL-0225_RLatLon0.09_PT053H.grib2 2026-05-08 02:56 413K
20260508T00Z_MSC_RDPS_AirTemp_IsbL-0250_RLatLon0.09_PT053H.grib2 2026-05-08 02:56 423K
20260508T00Z_MSC_RDPS_AirTemp_IsbL-0275_RLatLon0.09_PT053H.grib2 2026-05-08 02:56 404K
20260508T00Z_MSC_RDPS_AirTemp_IsbL-0300_RLatLon0.09_PT053H.grib2 2026-05-08 02:56 409K
20260508T00Z_MSC_RDPS_AirTemp_IsbL-0350_RLatLon0.09_PT053H.grib2 2026-05-08 02:56 422K
20260508T00Z_MSC_RDPS_AirTemp_IsbL-0400_RLatLon0.09_PT053H.grib2 2026-05-08 02:56 426K
20260508T00Z_MSC_RDPS_AirTemp_IsbL-0450_RLatLon0.09_PT053H.grib2 2026-05-08 02:56 435K
20260508T00Z_MSC_RDPS_AirTemp_IsbL-0500_RLatLon0.09_PT053H.grib2 2026-05-08 02:56 446K
20260508T00Z_MSC_RDPS_AirTemp_IsbL-0550_RLatLon0.09_PT053H.grib2 2026-05-08 02:56 464K
20260508T00Z_MSC_RDPS_AirTemp_IsbL-0600_RLatLon0.09_PT053H.grib2 2026-05-08 02:56 481K
20260508T00Z_MSC_RDPS_AirTemp_IsbL-0650_RLatLon0.09_PT053H.grib2 2026-05-08 02:56 497K
20260508T00Z_MSC_RDPS_AirTemp_IsbL-0700_RLatLon0.09_PT053H.grib2 2026-05-08 02:56 523K
20260508T00Z_MSC_RDPS_AirTemp_IsbL-0750_RLatLon0.09_PT053H.grib2 2026-05-08 02:56 525K
20260508T00Z_MSC_RDPS_AirTemp_IsbL-0800_RLatLon0.09_PT053H.grib2 2026-05-08 02:56 458K
20260508T00Z_MSC_RDPS_AirTemp_IsbL-0850_RLatLon0.09_PT053H.grib2 2026-05-08 02:56 504K
20260508T00Z_MSC_RDPS_AirTemp_IsbL-0875_RLatLon0.09_PT053H.grib2 2026-05-08 02:56 518K
20260508T00Z_MSC_RDPS_AirTemp_IsbL-0900_RLatLon0.09_PT053H.grib2 2026-05-08 02:56 522K
20260508T00Z_MSC_RDPS_AirTemp_IsbL-0925_RLatLon0.09_PT053H.grib2 2026-05-08 02:56 521K
20260508T00Z_MSC_RDPS_AirTemp_IsbL-0950_RLatLon0.09_PT053H.grib2 2026-05-08 02:56 522K
20260508T00Z_MSC_RDPS_AirTemp_IsbL-0970_RLatLon0.09_PT053H.grib2 2026-05-08 02:56 518K
20260508T00Z_MSC_RDPS_AirTemp_IsbL-0985_RLatLon0.09_PT053H.grib2 2026-05-08 02:56 503K
20260508T00Z_MSC_RDPS_AirTemp_IsbL-1000_RLatLon0.09_PT053H.grib2 2026-05-08 02:56 486K
20260508T00Z_MSC_RDPS_AirTemp_IsbL-1015_RLatLon0.09_PT053H.grib2 2026-05-08 02:56 490K
20260508T00Z_MSC_RDPS_Albedo_Sfc_RLatLon0.09_PT053H.grib2 2026-05-08 02:56 156K
20260508T00Z_MSC_RDPS_CAPE_Sfc_RLatLon0.09_PT053H.grib2 2026-05-08 02:56 1.7M
20260508T00Z_MSC_RDPS_CIN_Sfc_RLatLon0.09_PT053H.grib2 2026-05-08 02:56 1.3M
20260508T00Z_MSC_RDPS_CloudWater_EAtm_RLatLon0.09_PT053H.grib2 2026-05-08 02:56 226K
20260508T00Z_MSC_RDPS_ConvectivePrecip-Accum_Sfc_RLatLon0.09_PT053H.grib2 2026-05-08 02:56 1.2M
20260508T00Z_MSC_RDPS_DewPointDepression_AGL-2m_RLatLon0.09_PT053H.grib2 2026-05-08 02:56 395K
20260508T00Z_MSC_RDPS_DewPointDepression_IsbL-0001_RLatLon0.09_PT053H.grib2 2026-05-08 02:56 193
20260508T00Z_MSC_RDPS_DewPointDepression_IsbL-0005_RLatLon0.09_PT053H.grib2 2026-05-08 02:56 193
20260508T00Z_MSC_RDPS_DewPointDepression_IsbL-0010_RLatLon0.09_PT053H.grib2 2026-05-08 02:56 193
20260508T00Z_MSC_RDPS_DewPointDepression_IsbL-0020_RLatLon0.09_PT053H.grib2 2026-05-08 02:56 193
20260508T00Z_MSC_RDPS_DewPointDepression_IsbL-0030_RLatLon0.09_PT053H.grib2 2026-05-08 02:56 193
20260508T00Z_MSC_RDPS_DewPointDepression_IsbL-0050_RLatLon0.09_PT053H.grib2 2026-05-08 02:56 106K
20260508T00Z_MSC_RDPS_DewPointDepression_IsbL-0100_RLatLon0.09_PT053H.grib2 2026-05-08 02:56 113K
20260508T00Z_MSC_RDPS_DewPointDepression_IsbL-0150_RLatLon0.09_PT053H.grib2 2026-05-08 02:56 147K
20260508T00Z_MSC_RDPS_DewPointDepression_IsbL-0175_RLatLon0.09_PT053H.grib2 2026-05-08 02:56 171K
20260508T00Z_MSC_RDPS_DewPointDepression_IsbL-0200_RLatLon0.09_PT053H.grib2 2026-05-08 02:56 216K
20260508T00Z_MSC_RDPS_DewPointDepression_IsbL-0225_RLatLon0.09_PT053H.grib2 2026-05-08 02:56 263K
20260508T00Z_MSC_RDPS_DewPointDepression_IsbL-0250_RLatLon0.09_PT053H.grib2 2026-05-08 02:56 306K
20260508T00Z_MSC_RDPS_DewPointDepression_IsbL-0275_RLatLon0.09_PT053H.grib2 2026-05-08 02:56 312K
20260508T00Z_MSC_RDPS_DewPointDepression_IsbL-0300_RLatLon0.09_PT053H.grib2 2026-05-08 02:56 325K
20260508T00Z_MSC_RDPS_DewPointDepression_IsbL-0350_RLatLon0.09_PT053H.grib2 2026-05-08 02:56 328K
20260508T00Z_MSC_RDPS_DewPointDepression_IsbL-0400_RLatLon0.09_PT053H.grib2 2026-05-08 02:56 337K
20260508T00Z_MSC_RDPS_DewPointDepression_IsbL-0450_RLatLon0.09_PT053H.grib2 2026-05-08 02:56 342K
20260508T00Z_MSC_RDPS_DewPointDepression_IsbL-0500_RLatLon0.09_PT053H.grib2 2026-05-08 02:56 348K
20260508T00Z_MSC_RDPS_DewPointDepression_IsbL-0550_RLatLon0.09_PT053H.grib2 2026-05-08 02:56 358K
20260508T00Z_MSC_RDPS_DewPointDepression_IsbL-0600_RLatLon0.09_PT053H.grib2 2026-05-08 02:56 372K
20260508T00Z_MSC_RDPS_DewPointDepression_IsbL-0650_RLatLon0.09_PT053H.grib2 2026-05-08 02:56 382K
20260508T00Z_MSC_RDPS_DewPointDepression_IsbL-0700_RLatLon0.09_PT053H.grib2 2026-05-08 02:56 396K
20260508T00Z_MSC_RDPS_DewPointDepression_IsbL-0750_RLatLon0.09_PT053H.grib2 2026-05-08 02:56 414K
20260508T00Z_MSC_RDPS_DewPointDepression_IsbL-0800_RLatLon0.09_PT053H.grib2 2026-05-08 02:56 449K
20260508T00Z_MSC_RDPS_DewPointDepression_IsbL-0850_RLatLon0.09_PT053H.grib2 2026-05-08 02:56 473K
20260508T00Z_MSC_RDPS_DewPointDepression_IsbL-0875_RLatLon0.09_PT053H.grib2 2026-05-08 02:56 468K
20260508T00Z_MSC_RDPS_DewPointDepression_IsbL-0900_RLatLon0.09_PT053H.grib2 2026-05-08 02:56 455K
20260508T00Z_MSC_RDPS_DewPointDepression_IsbL-0925_RLatLon0.09_PT053H.grib2 2026-05-08 02:56 443K
20260508T00Z_MSC_RDPS_DewPointDepression_IsbL-0950_RLatLon0.09_PT053H.grib2 2026-05-08 02:56 435K
20260508T00Z_MSC_RDPS_DewPointDepression_IsbL-0970_RLatLon0.09_PT053H.grib2 2026-05-08 02:56 428K
20260508T00Z_MSC_RDPS_DewPointDepression_IsbL-0985_RLatLon0.09_PT053H.grib2 2026-05-08 02:56 423K
20260508T00Z_MSC_RDPS_DewPointDepression_IsbL-1000_RLatLon0.09_PT053H.grib2 2026-05-08 02:56 416K
20260508T00Z_MSC_RDPS_DewPointDepression_IsbL-1015_RLatLon0.09_PT053H.grib2 2026-05-08 02:56 406K
20260508T00Z_MSC_RDPS_DewPoint_AGL-2m_RLatLon0.09_PT053H.grib2 2026-05-08 02:56 386K
20260508T00Z_MSC_RDPS_DownwardLongwaveRadiationFlux-Accum_Sfc_RLatLon0.09_PT053H.grib2 2026-05-08 02:56 383K
20260508T00Z_MSC_RDPS_DownwardShortwaveRadiationFlux-Accum_NTAtm_RLatLon0.09_PT053H.grib2 2026-05-08 02:56 120K
20260508T00Z_MSC_RDPS_DownwardShortwaveRadiationFlux-Accum_Sfc_RLatLon0.09_PT053H.grib2 2026-05-08 02:56 578K
20260508T00Z_MSC_RDPS_FreezingRain-Accum1h_Sfc_RLatLon0.09_PT053H.grib2 2026-05-08 02:56 49K
20260508T00Z_MSC_RDPS_FreezingRain-Accum_Sfc_RLatLon0.09_PT053H.grib2 2026-05-08 02:56 151K
20260508T00Z_MSC_RDPS_GeopotentialHeight_IsbL-0001_RLatLon0.09_PT053H.grib2 2026-05-08 02:56 239K
20260508T00Z_MSC_RDPS_GeopotentialHeight_IsbL-0005_RLatLon0.09_PT053H.grib2 2026-05-08 02:56 303K
20260508T00Z_MSC_RDPS_GeopotentialHeight_IsbL-0010_RLatLon0.09_PT053H.grib2 2026-05-08 02:56 305K
20260508T00Z_MSC_RDPS_GeopotentialHeight_IsbL-0020_RLatLon0.09_PT053H.grib2 2026-05-08 02:56 304K
20260508T00Z_MSC_RDPS_GeopotentialHeight_IsbL-0030_RLatLon0.09_PT053H.grib2 2026-05-08 02:56 401K
20260508T00Z_MSC_RDPS_GeopotentialHeight_IsbL-0050_RLatLon0.09_PT053H.grib2 2026-05-08 02:56 306K
20260508T00Z_MSC_RDPS_GeopotentialHeight_IsbL-0100_RLatLon0.09_PT053H.grib2 2026-05-08 02:56 284K
20260508T00Z_MSC_RDPS_GeopotentialHeight_IsbL-0150_RLatLon0.09_PT053H.grib2 2026-05-08 02:56 227K
20260508T00Z_MSC_RDPS_GeopotentialHeight_IsbL-0175_RLatLon0.09_PT053H.grib2 2026-05-08 02:56 229K
20260508T00Z_MSC_RDPS_GeopotentialHeight_IsbL-0200_RLatLon0.09_PT053H.grib2 2026-05-08 02:56 232K
20260508T00Z_MSC_RDPS_GeopotentialHeight_IsbL-0225_RLatLon0.09_PT053H.grib2 2026-05-08 02:56 264K
20260508T00Z_MSC_RDPS_GeopotentialHeight_IsbL-0250_RLatLon0.09_PT053H.grib2 2026-05-08 02:56 265K
20260508T00Z_MSC_RDPS_GeopotentialHeight_IsbL-0275_RLatLon0.09_PT053H.grib2 2026-05-08 02:56 265K
20260508T00Z_MSC_RDPS_GeopotentialHeight_IsbL-0300_RLatLon0.09_PT053H.grib2 2026-05-08 02:56 235K
20260508T00Z_MSC_RDPS_GeopotentialHeight_IsbL-0350_RLatLon0.09_PT053H.grib2 2026-05-08 02:56 231K
20260508T00Z_MSC_RDPS_GeopotentialHeight_IsbL-0400_RLatLon0.09_PT053H.grib2 2026-05-08 02:56 227K
20260508T00Z_MSC_RDPS_GeopotentialHeight_IsbL-0450_RLatLon0.09_PT053H.grib2 2026-05-08 02:56 294K
20260508T00Z_MSC_RDPS_GeopotentialHeight_IsbL-0500_RLatLon0.09_PT053H.grib2 2026-05-08 02:56 289K
20260508T00Z_MSC_RDPS_GeopotentialHeight_IsbL-0550_RLatLon0.09_PT053H.grib2 2026-05-08 02:56 286K
20260508T00Z_MSC_RDPS_GeopotentialHeight_IsbL-0600_RLatLon0.09_PT053H.grib2 2026-05-08 02:56 282K
20260508T00Z_MSC_RDPS_GeopotentialHeight_IsbL-0650_RLatLon0.09_PT053H.grib2 2026-05-08 02:56 253K
20260508T00Z_MSC_RDPS_GeopotentialHeight_IsbL-0700_RLatLon0.09_PT053H.grib2 2026-05-08 02:56 252K
20260508T00Z_MSC_RDPS_GeopotentialHeight_IsbL-0750_RLatLon0.09_PT053H.grib2 2026-05-08 02:56 337K
20260508T00Z_MSC_RDPS_GeopotentialHeight_IsbL-0800_RLatLon0.09_PT053H.grib2 2026-05-08 02:56 346K
20260508T00Z_MSC_RDPS_GeopotentialHeight_IsbL-0850_RLatLon0.09_PT053H.grib2 2026-05-08 02:56 355K
20260508T00Z_MSC_RDPS_GeopotentialHeight_IsbL-0875_RLatLon0.09_PT053H.grib2 2026-05-08 02:56 358K
20260508T00Z_MSC_RDPS_GeopotentialHeight_IsbL-0900_RLatLon0.09_PT053H.grib2 2026-05-08 02:56 361K
20260508T00Z_MSC_RDPS_GeopotentialHeight_IsbL-0925_RLatLon0.09_PT053H.grib2 2026-05-08 02:56 365K
20260508T00Z_MSC_RDPS_GeopotentialHeight_IsbL-0950_RLatLon0.09_PT053H.grib2 2026-05-08 02:56 367K
20260508T00Z_MSC_RDPS_GeopotentialHeight_IsbL-0970_RLatLon0.09_PT053H.grib2 2026-05-08 02:56 373K
20260508T00Z_MSC_RDPS_GeopotentialHeight_IsbL-0985_RLatLon0.09_PT053H.grib2 2026-05-08 02:56 381K
20260508T00Z_MSC_RDPS_GeopotentialHeight_IsbL-1000_RLatLon0.09_PT053H.grib2 2026-05-08 02:56 392K
20260508T00Z_MSC_RDPS_GeopotentialHeight_IsbL-1015_RLatLon0.09_PT053H.grib2 2026-05-08 02:56 407K
20260508T00Z_MSC_RDPS_HighLowPressure_MSL_RLatLon0.09_PT053H.json 2026-05-08 02:48 19K
20260508T00Z_MSC_RDPS_Humidex_Sfc_RLatLon0.09_PT053H.grib2 2026-05-08 02:56 2.4M
20260508T00Z_MSC_RDPS_IcePellets-Accum1h_Sfc_RLatLon0.09_PT053H.grib2 2026-05-08 02:56 11K
20260508T00Z_MSC_RDPS_IcePellets-Accum_Sfc_RLatLon0.09_PT053H.grib2 2026-05-08 02:56 25K
20260508T00Z_MSC_RDPS_KIndex_Sfc_RLatLon0.09_PT053H.grib2 2026-05-08 02:56 2.5M
20260508T00Z_MSC_RDPS_LatentHeatNetFlux_Sfc_RLatLon0.09_PT053H.grib2 2026-05-08 02:56 415K
20260508T00Z_MSC_RDPS_LiftedIndex-MU-VT_IsbL-0500_RLatLon0.09_PT053H.grib2 2026-05-08 02:56 2.4M
20260508T00Z_MSC_RDPS_NetLongwaveRadiationFlux-Accum_Sfc_RLatLon0.09_PT053H.grib2 2026-05-08 02:56 561K
20260508T00Z_MSC_RDPS_NetShortwaveRadiationFlux-Accum_Sfc_RLatLon0.09_PT053H.grib2 2026-05-08 02:56 578K
20260508T00Z_MSC_RDPS_PlanetaryBoundaryLayerHeight_Sfc_RLatLon0.09_PT053H.grib2 2026-05-08 02:56 1.1M
20260508T00Z_MSC_RDPS_Precip-Accum1h_Sfc_RLatLon0.09_PT053H.grib2 2026-05-08 02:56 1.2M
20260508T00Z_MSC_RDPS_Precip-Accum_Sfc_RLatLon0.09_PT053H.grib2 2026-05-08 02:56 2.0M
20260508T00Z_MSC_RDPS_PrecipRate_Sfc_RLatLon0.09_PT053H.grib2 2026-05-08 02:56 176K
20260508T00Z_MSC_RDPS_PrecipType-Instant_Sfc_RLatLon0.09_PT053H.grib2 2026-05-08 02:56 584K
20260508T00Z_MSC_RDPS_Pressure-Trend3h_Sfc_RLatLon0.09_PT053H.grib2 2026-05-08 02:56 1.2M
20260508T00Z_MSC_RDPS_Pressure_MSL_RLatLon0.09_PT053H.grib2 2026-05-08 02:56 324K
20260508T00Z_MSC_RDPS_Pressure_PVU-1.5_RLatLon0.09_PT053H.grib2 2026-05-08 02:56 2.3M
20260508T00Z_MSC_RDPS_Pressure_PVU-1_RLatLon0.09_PT053H.grib2 2026-05-08 02:56 2.4M
20260508T00Z_MSC_RDPS_Pressure_PVU-2_RLatLon0.09_PT053H.grib2 2026-05-08 02:56 2.4M
20260508T00Z_MSC_RDPS_Pressure_Sfc_RLatLon0.09_PT053H.grib2 2026-05-08 02:56 498K
20260508T00Z_MSC_RDPS_RadiativeTemp_Sfc_RLatLon0.09_PT053H.grib2 2026-05-08 02:56 303K
20260508T00Z_MSC_RDPS_Rain-Accum1h_Sfc_RLatLon0.09_PT053H.grib2 2026-05-08 02:56 557K
20260508T00Z_MSC_RDPS_Rain-Accum_Sfc_RLatLon0.09_PT053H.grib2 2026-05-08 02:56 1.7M
20260508T00Z_MSC_RDPS_RelativeHumidity_AGL-2m_RLatLon0.09_PT053H.grib2 2026-05-08 02:56 1.0M
20260508T00Z_MSC_RDPS_RelativeHumidity_IsbL-0010_RLatLon0.09_PT053H.grib2 2026-05-08 02:56 587K
20260508T00Z_MSC_RDPS_RelativeHumidity_IsbL-0020_RLatLon0.09_PT053H.grib2 2026-05-08 02:56 636K
20260508T00Z_MSC_RDPS_RelativeHumidity_IsbL-0030_RLatLon0.09_PT053H.grib2 2026-05-08 02:56 627K
20260508T00Z_MSC_RDPS_RelativeHumidity_IsbL-0050_RLatLon0.09_PT053H.grib2 2026-05-08 02:56 352K
20260508T00Z_MSC_RDPS_RelativeHumidity_IsbL-0100_RLatLon0.09_PT053H.grib2 2026-05-08 02:56 280K
20260508T00Z_MSC_RDPS_RelativeHumidity_IsbL-0150_RLatLon0.09_PT053H.grib2 2026-05-08 02:56 417K
20260508T00Z_MSC_RDPS_RelativeHumidity_IsbL-0175_RLatLon0.09_PT053H.grib2 2026-05-08 02:56 471K
20260508T00Z_MSC_RDPS_RelativeHumidity_IsbL-0200_RLatLon0.09_PT053H.grib2 2026-05-08 02:56 538K
20260508T00Z_MSC_RDPS_RelativeHumidity_IsbL-0225_RLatLon0.09_PT053H.grib2 2026-05-08 02:56 612K
20260508T00Z_MSC_RDPS_RelativeHumidity_IsbL-0250_RLatLon0.09_PT053H.grib2 2026-05-08 02:56 692K
20260508T00Z_MSC_RDPS_RelativeHumidity_IsbL-0275_RLatLon0.09_PT053H.grib2 2026-05-08 02:56 720K
20260508T00Z_MSC_RDPS_RelativeHumidity_IsbL-0300_RLatLon0.09_PT053H.grib2 2026-05-08 02:56 756K
20260508T00Z_MSC_RDPS_RelativeHumidity_IsbL-0350_RLatLon0.09_PT053H.grib2 2026-05-08 02:56 772K
20260508T00Z_MSC_RDPS_RelativeHumidity_IsbL-0400_RLatLon0.09_PT053H.grib2 2026-05-08 02:56 790K
20260508T00Z_MSC_RDPS_RelativeHumidity_IsbL-0450_RLatLon0.09_PT053H.grib2 2026-05-08 02:56 796K
20260508T00Z_MSC_RDPS_RelativeHumidity_IsbL-0500_RLatLon0.09_PT053H.grib2 2026-05-08 02:56 805K
20260508T00Z_MSC_RDPS_RelativeHumidity_IsbL-0550_RLatLon0.09_PT053H.grib2 2026-05-08 02:56 817K
20260508T00Z_MSC_RDPS_RelativeHumidity_IsbL-0600_RLatLon0.09_PT053H.grib2 2026-05-08 02:56 838K
20260508T00Z_MSC_RDPS_RelativeHumidity_IsbL-0650_RLatLon0.09_PT053H.grib2 2026-05-08 02:56 854K
20260508T00Z_MSC_RDPS_RelativeHumidity_IsbL-0700_RLatLon0.09_PT053H.grib2 2026-05-08 02:56 890K
20260508T00Z_MSC_RDPS_RelativeHumidity_IsbL-0750_RLatLon0.09_PT053H.grib2 2026-05-08 02:56 934K
20260508T00Z_MSC_RDPS_RelativeHumidity_IsbL-0800_RLatLon0.09_PT053H.grib2 2026-05-08 02:56 1.0M
20260508T00Z_MSC_RDPS_RelativeHumidity_IsbL-0850_RLatLon0.09_PT053H.grib2 2026-05-08 02:56 1.0M
20260508T00Z_MSC_RDPS_RelativeHumidity_IsbL-0875_RLatLon0.09_PT053H.grib2 2026-05-08 02:56 1.0M
20260508T00Z_MSC_RDPS_RelativeHumidity_IsbL-0900_RLatLon0.09_PT053H.grib2 2026-05-08 02:56 1.1M
20260508T00Z_MSC_RDPS_RelativeHumidity_IsbL-0925_RLatLon0.09_PT053H.grib2 2026-05-08 02:56 1.1M
20260508T00Z_MSC_RDPS_RelativeHumidity_IsbL-0950_RLatLon0.09_PT053H.grib2 2026-05-08 02:56 1.0M
20260508T00Z_MSC_RDPS_RelativeHumidity_IsbL-0970_RLatLon0.09_PT053H.grib2 2026-05-08 02:56 1.0M
20260508T00Z_MSC_RDPS_RelativeHumidity_IsbL-0985_RLatLon0.09_PT053H.grib2 2026-05-08 02:56 1.0M
20260508T00Z_MSC_RDPS_RelativeHumidity_IsbL-1000_RLatLon0.09_PT053H.grib2 2026-05-08 02:56 1.0M
20260508T00Z_MSC_RDPS_RelativeHumidity_IsbL-1015_RLatLon0.09_PT053H.grib2 2026-05-08 02:56 1.0M
20260508T00Z_MSC_RDPS_Runoff-Accum_Sfc_RLatLon0.09_PT053H.grib2 2026-05-08 02:56 38K
20260508T00Z_MSC_RDPS_SWEATIndex_Sfc_RLatLon0.09_PT053H.grib2 2026-05-08 02:56 2.4M
20260508T00Z_MSC_RDPS_SeeingIndex_EAtm_RLatLon0.09_PT053H.grib2 2026-05-08 02:56 1.0M
20260508T00Z_MSC_RDPS_SensibleHeatNetFlux_Sfc_RLatLon0.09_PT053H.grib2 2026-05-08 02:56 290K
20260508T00Z_MSC_RDPS_ShowalterIndex_IsbL-0500_RLatLon0.09_PT053H.grib2 2026-05-08 02:56 2.6M
20260508T00Z_MSC_RDPS_SkyTransparencyIndex_EAtm_RLatLon0.09_PT053H.grib2 2026-05-08 02:56 704K
20260508T00Z_MSC_RDPS_Snow-Accum1h_Sfc_RLatLon0.09_PT053H.grib2 2026-05-08 02:56 339K
20260508T00Z_MSC_RDPS_Snow-Accum_Sfc_RLatLon0.09_PT053H.grib2 2026-05-08 02:56 694K
20260508T00Z_MSC_RDPS_SnowDensity_Sfc_RLatLon0.09_PT053H.grib2 2026-05-08 02:56 171K
20260508T00Z_MSC_RDPS_SnowDepth_Sfc_RLatLon0.09_PT053H.grib2 2026-05-08 02:56 621K
20260508T00Z_MSC_RDPS_SoilTemp_DBS-0to10cm_RLatLon0.09_PT053H.grib2 2026-05-08 02:56 241K
20260508T00Z_MSC_RDPS_SoilTemp_Sfc_RLatLon0.09_PT053H.grib2 2026-05-08 02:56 264K
20260508T00Z_MSC_RDPS_SoilVolumetricIceContent_Sfc_RLatLon0.09_PT053H.grib2 2026-05-08 02:56 143K
20260508T00Z_MSC_RDPS_SoilVolumetricWaterContent_DBS-0to10cm_RLatLon0.09_PT053H.grib2 2026-05-08 02:56 291K
20260508T00Z_MSC_RDPS_SoilVolumetricWaterContent_DBS-0to1cm_RLatLon0.09_PT053H.grib2 2026-05-08 02:56 342K
20260508T00Z_MSC_RDPS_SpecificHumidity_AGL-120m_RLatLon0.09_PT053H.grib2 2026-05-08 02:56 492K
20260508T00Z_MSC_RDPS_SpecificHumidity_AGL-2m_RLatLon0.09_PT053H.grib2 2026-05-08 02:56 662K
20260508T00Z_MSC_RDPS_SpecificHumidity_AGL-40m_RLatLon0.09_PT053H.grib2 2026-05-08 02:56 498K
20260508T00Z_MSC_RDPS_SpecificHumidity_AGL-80m_RLatLon0.09_PT053H.grib2 2026-05-08 02:56 493K
20260508T00Z_MSC_RDPS_SpecificHumidity_IsbL-0001_RLatLon0.09_PT053H.grib2 2026-05-08 02:56 356K
20260508T00Z_MSC_RDPS_SpecificHumidity_IsbL-0005_RLatLon0.09_PT053H.grib2 2026-05-08 02:56 371K
20260508T00Z_MSC_RDPS_SpecificHumidity_IsbL-0010_RLatLon0.09_PT053H.grib2 2026-05-08 02:56 398K
20260508T00Z_MSC_RDPS_SpecificHumidity_IsbL-0020_RLatLon0.09_PT053H.grib2 2026-05-08 02:56 492K
20260508T00Z_MSC_RDPS_SpecificHumidity_IsbL-0030_RLatLon0.09_PT053H.grib2 2026-05-08 02:56 373K
20260508T00Z_MSC_RDPS_SpecificHumidity_IsbL-0050_RLatLon0.09_PT053H.grib2 2026-05-08 02:56 483K
20260508T00Z_MSC_RDPS_SpecificHumidity_IsbL-0100_RLatLon0.09_PT053H.grib2 2026-05-08 02:56 438K
20260508T00Z_MSC_RDPS_SpecificHumidity_IsbL-0150_RLatLon0.09_PT053H.grib2 2026-05-08 02:56 458K
20260508T00Z_MSC_RDPS_SpecificHumidity_IsbL-0175_RLatLon0.09_PT053H.grib2 2026-05-08 02:56 434K
20260508T00Z_MSC_RDPS_SpecificHumidity_IsbL-0200_RLatLon0.09_PT053H.grib2 2026-05-08 02:56 450K
20260508T00Z_MSC_RDPS_SpecificHumidity_IsbL-0225_RLatLon0.09_PT053H.grib2 2026-05-08 02:56 456K
20260508T00Z_MSC_RDPS_SpecificHumidity_IsbL-0250_RLatLon0.09_PT053H.grib2 2026-05-08 02:56 522K
20260508T00Z_MSC_RDPS_SpecificHumidity_IsbL-0275_RLatLon0.09_PT053H.grib2 2026-05-08 02:56 481K
20260508T00Z_MSC_RDPS_SpecificHumidity_IsbL-0300_RLatLon0.09_PT053H.grib2 2026-05-08 02:56 575K
20260508T00Z_MSC_RDPS_SpecificHumidity_IsbL-0350_RLatLon0.09_PT053H.grib2 2026-05-08 02:56 544K
20260508T00Z_MSC_RDPS_SpecificHumidity_IsbL-0400_RLatLon0.09_PT053H.grib2 2026-05-08 02:56 529K
20260508T00Z_MSC_RDPS_SpecificHumidity_IsbL-0450_RLatLon0.09_PT053H.grib2 2026-05-08 02:56 582K
20260508T00Z_MSC_RDPS_SpecificHumidity_IsbL-0500_RLatLon0.09_PT053H.grib2 2026-05-08 02:56 521K
20260508T00Z_MSC_RDPS_SpecificHumidity_IsbL-0550_RLatLon0.09_PT053H.grib2 2026-05-08 02:56 590K
20260508T00Z_MSC_RDPS_SpecificHumidity_IsbL-0600_RLatLon0.09_PT053H.grib2 2026-05-08 02:56 644K
20260508T00Z_MSC_RDPS_SpecificHumidity_IsbL-0650_RLatLon0.09_PT053H.grib2 2026-05-08 02:56 564K
20260508T00Z_MSC_RDPS_SpecificHumidity_IsbL-0700_RLatLon0.09_PT053H.grib2 2026-05-08 02:56 613K
20260508T00Z_MSC_RDPS_SpecificHumidity_IsbL-0750_RLatLon0.09_PT053H.grib2 2026-05-08 02:56 673K
20260508T00Z_MSC_RDPS_SpecificHumidity_IsbL-0800_RLatLon0.09_PT053H.grib2 2026-05-08 02:56 758K
20260508T00Z_MSC_RDPS_SpecificHumidity_IsbL-0850_RLatLon0.09_PT053H.grib2 2026-05-08 02:56 822K
20260508T00Z_MSC_RDPS_SpecificHumidity_IsbL-0875_RLatLon0.09_PT053H.grib2 2026-05-08 02:56 839K
20260508T00Z_MSC_RDPS_SpecificHumidity_IsbL-0900_RLatLon0.09_PT053H.grib2 2026-05-08 02:56 848K
20260508T00Z_MSC_RDPS_SpecificHumidity_IsbL-0925_RLatLon0.09_PT053H.grib2 2026-05-08 02:56 849K
20260508T00Z_MSC_RDPS_SpecificHumidity_IsbL-0950_RLatLon0.09_PT053H.grib2 2026-05-08 02:56 848K
20260508T00Z_MSC_RDPS_SpecificHumidity_IsbL-0970_RLatLon0.09_PT053H.grib2 2026-05-08 02:56 699K
20260508T00Z_MSC_RDPS_SpecificHumidity_IsbL-0985_RLatLon0.09_PT053H.grib2 2026-05-08 02:56 691K
20260508T00Z_MSC_RDPS_SpecificHumidity_IsbL-1000_RLatLon0.09_PT053H.grib2 2026-05-08 02:56 684K
20260508T00Z_MSC_RDPS_SpecificHumidity_IsbL-1015_RLatLon0.09_PT053H.grib2 2026-05-08 02:56 676K
20260508T00Z_MSC_RDPS_SpecificHumidity_Sfc_RLatLon0.09_PT053H.grib2 2026-05-08 02:56 322K
20260508T00Z_MSC_RDPS_StormRelativeHelicity_EtaL-10000_RLatLon0.09_PT053H.grib2 2026-05-08 02:56 1.1M
20260508T00Z_MSC_RDPS_StormSeverityIndex_EtaL-10000_RLatLon0.09_PT053H.grib2 2026-05-08 02:56 1.2M
20260508T00Z_MSC_RDPS_Thickness_IsbL-0850to0700_RLatLon0.09_PT053H.grib2 2026-05-08 02:56 248K
20260508T00Z_MSC_RDPS_Thickness_IsbL-1000to0500_RLatLon0.09_PT053H.grib2 2026-05-08 02:56 195K
20260508T00Z_MSC_RDPS_Thickness_IsbL-1000to0850_RLatLon0.09_PT053H.grib2 2026-05-08 02:56 259K
20260508T00Z_MSC_RDPS_TotalCloudCover_Sfc_RLatLon0.09_PT053H.grib2 2026-05-08 02:56 669K
20260508T00Z_MSC_RDPS_TotalTotalsIndex_Sfc_RLatLon0.09_PT053H.grib2 2026-05-08 02:56 2.5M
20260508T00Z_MSC_RDPS_UVIndex-ClearSky_Sfc_RLatLon0.09_PT053H.grib2 2026-05-08 02:56 111K
20260508T00Z_MSC_RDPS_UVIndex_Sfc_RLatLon0.09_PT053H.grib2 2026-05-08 02:56 195K
20260508T00Z_MSC_RDPS_UpwardLongwaveRadiationFlux_NTAtm_RLatLon0.09_PT053H.grib2 2026-05-08 02:56 488K
20260508T00Z_MSC_RDPS_UpwardShortwaveRadiationFlux_NTAtm_RLatLon0.09_PT053H.grib2 2026-05-08 02:56 160K
20260508T00Z_MSC_RDPS_VerticalVelocity_IsbL-0250_RLatLon0.09_PT053H.grib2 2026-05-08 02:56 575K
20260508T00Z_MSC_RDPS_VerticalVelocity_IsbL-0500_RLatLon0.09_PT053H.grib2 2026-05-08 02:56 538K
20260508T00Z_MSC_RDPS_VerticalVelocity_IsbL-0700_RLatLon0.09_PT053H.grib2 2026-05-08 02:56 620K
20260508T00Z_MSC_RDPS_VerticalVelocity_IsbL-0850_RLatLon0.09_PT053H.grib2 2026-05-08 02:56 697K
20260508T00Z_MSC_RDPS_VerticalWindShear_EtaL-6500_RLatLon0.09_PT053H.grib2 2026-05-08 02:56 1.2M
20260508T00Z_MSC_RDPS_WindChill_Sfc_RLatLon0.09_PT053H.grib2 2026-05-08 02:56 1.2M
20260508T00Z_MSC_RDPS_WindDir_AGL-10m_RLatLon0.09_PT053H.grib2 2026-05-08 02:56 959K
20260508T00Z_MSC_RDPS_WindDir_AGL-120m_RLatLon0.09_PT053H.grib2 2026-05-08 02:56 593K
20260508T00Z_MSC_RDPS_WindDir_AGL-40m_RLatLon0.09_PT053H.grib2 2026-05-08 02:56 628K
20260508T00Z_MSC_RDPS_WindDir_AGL-80m_RLatLon0.09_PT053H.grib2 2026-05-08 02:56 607K
20260508T00Z_MSC_RDPS_WindDir_IsbL-0001_RLatLon0.09_PT053H.grib2 2026-05-08 02:56 290K
20260508T00Z_MSC_RDPS_WindDir_IsbL-0005_RLatLon0.09_PT053H.grib2 2026-05-08 02:56 365K
20260508T00Z_MSC_RDPS_WindDir_IsbL-0010_RLatLon0.09_PT053H.grib2 2026-05-08 02:56 394K
20260508T00Z_MSC_RDPS_WindDir_IsbL-0020_RLatLon0.09_PT053H.grib2 2026-05-08 02:56 419K
20260508T00Z_MSC_RDPS_WindDir_IsbL-0030_RLatLon0.09_PT053H.grib2 2026-05-08 02:56 423K
20260508T00Z_MSC_RDPS_WindDir_IsbL-0050_RLatLon0.09_PT053H.grib2 2026-05-08 02:56 435K
20260508T00Z_MSC_RDPS_WindDir_IsbL-0100_RLatLon0.09_PT053H.grib2 2026-05-08 02:56 420K
20260508T00Z_MSC_RDPS_WindDir_IsbL-0150_RLatLon0.09_PT053H.grib2 2026-05-08 02:56 416K
20260508T00Z_MSC_RDPS_WindDir_IsbL-0175_RLatLon0.09_PT053H.grib2 2026-05-08 02:56 441K
20260508T00Z_MSC_RDPS_WindDir_IsbL-0200_RLatLon0.09_PT053H.grib2 2026-05-08 02:56 463K
20260508T00Z_MSC_RDPS_WindDir_IsbL-0225_RLatLon0.09_PT053H.grib2 2026-05-08 02:56 467K
20260508T00Z_MSC_RDPS_WindDir_IsbL-0250_RLatLon0.09_PT053H.grib2 2026-05-08 02:56 466K
20260508T00Z_MSC_RDPS_WindDir_IsbL-0275_RLatLon0.09_PT053H.grib2 2026-05-08 02:56 481K
20260508T00Z_MSC_RDPS_WindDir_IsbL-0300_RLatLon0.09_PT053H.grib2 2026-05-08 02:56 476K
20260508T00Z_MSC_RDPS_WindDir_IsbL-0350_RLatLon0.09_PT053H.grib2 2026-05-08 02:56 503K
20260508T00Z_MSC_RDPS_WindDir_IsbL-0400_RLatLon0.09_PT053H.grib2 2026-05-08 02:56 532K
20260508T00Z_MSC_RDPS_WindDir_IsbL-0450_RLatLon0.09_PT053H.grib2 2026-05-08 02:56 552K
20260508T00Z_MSC_RDPS_WindDir_IsbL-0500_RLatLon0.09_PT053H.grib2 2026-05-08 02:56 567K
20260508T00Z_MSC_RDPS_WindDir_IsbL-0550_RLatLon0.09_PT053H.grib2 2026-05-08 02:56 578K
20260508T00Z_MSC_RDPS_WindDir_IsbL-0600_RLatLon0.09_PT053H.grib2 2026-05-08 02:56 595K
20260508T00Z_MSC_RDPS_WindDir_IsbL-0650_RLatLon0.09_PT053H.grib2 2026-05-08 02:56 636K
20260508T00Z_MSC_RDPS_WindDir_IsbL-0700_RLatLon0.09_PT053H.grib2 2026-05-08 02:56 676K
20260508T00Z_MSC_RDPS_WindDir_IsbL-0750_RLatLon0.09_PT053H.grib2 2026-05-08 02:56 730K
20260508T00Z_MSC_RDPS_WindDir_IsbL-0800_RLatLon0.09_PT053H.grib2 2026-05-08 02:56 796K
20260508T00Z_MSC_RDPS_WindDir_IsbL-0850_RLatLon0.09_PT053H.grib2 2026-05-08 02:56 859K
20260508T00Z_MSC_RDPS_WindDir_IsbL-0875_RLatLon0.09_PT053H.grib2 2026-05-08 02:56 880K
20260508T00Z_MSC_RDPS_WindDir_IsbL-0900_RLatLon0.09_PT053H.grib2 2026-05-08 02:56 893K
20260508T00Z_MSC_RDPS_WindDir_IsbL-0925_RLatLon0.09_PT053H.grib2 2026-05-08 02:56 902K
20260508T00Z_MSC_RDPS_WindDir_IsbL-0950_RLatLon0.09_PT053H.grib2 2026-05-08 02:56 904K
20260508T00Z_MSC_RDPS_WindDir_IsbL-0970_RLatLon0.09_PT053H.grib2 2026-05-08 02:56 908K
20260508T00Z_MSC_RDPS_WindDir_IsbL-0985_RLatLon0.09_PT053H.grib2 2026-05-08 02:56 917K
20260508T00Z_MSC_RDPS_WindDir_IsbL-1000_RLatLon0.09_PT053H.grib2 2026-05-08 02:56 935K
20260508T00Z_MSC_RDPS_WindDir_IsbL-1015_RLatLon0.09_PT053H.grib2 2026-05-08 02:56 952K
20260508T00Z_MSC_RDPS_WindGust-Max_AGL-10m_RLatLon0.09_PT053H.grib2 2026-05-08 02:56 1.0M
20260508T00Z_MSC_RDPS_WindGust-Min_AGL-10m_RLatLon0.09_PT053H.grib2 2026-05-08 02:56 1.0M
20260508T00Z_MSC_RDPS_WindGust_AGL-10m_RLatLon0.09_PT053H.grib2 2026-05-08 02:56 1.0M
20260508T00Z_MSC_RDPS_WindSpeed_AGL-10m_RLatLon0.09_PT053H.grib2 2026-05-08 02:56 842K
20260508T00Z_MSC_RDPS_WindSpeed_AGL-120m_RLatLon0.09_PT053H.grib2 2026-05-08 02:56 542K
20260508T00Z_MSC_RDPS_WindSpeed_AGL-40m_RLatLon0.09_PT053H.grib2 2026-05-08 02:56 546K
20260508T00Z_MSC_RDPS_WindSpeed_AGL-80m_RLatLon0.09_PT053H.grib2 2026-05-08 02:56 543K
20260508T00Z_MSC_RDPS_WindSpeed_IsbL-0001_RLatLon0.09_PT053H.grib2 2026-05-08 02:56 253K
20260508T00Z_MSC_RDPS_WindSpeed_IsbL-0005_RLatLon0.09_PT053H.grib2 2026-05-08 02:56 348K
20260508T00Z_MSC_RDPS_WindSpeed_IsbL-0010_RLatLon0.09_PT053H.grib2 2026-05-08 02:56 365K
20260508T00Z_MSC_RDPS_WindSpeed_IsbL-0020_RLatLon0.09_PT053H.grib2 2026-05-08 02:56 323K
20260508T00Z_MSC_RDPS_WindSpeed_IsbL-0030_RLatLon0.09_PT053H.grib2 2026-05-08 02:56 318K
20260508T00Z_MSC_RDPS_WindSpeed_IsbL-0050_RLatLon0.09_PT053H.grib2 2026-05-08 02:56 342K
20260508T00Z_MSC_RDPS_WindSpeed_IsbL-0100_RLatLon0.09_PT053H.grib2 2026-05-08 02:56 474K
20260508T00Z_MSC_RDPS_WindSpeed_IsbL-0150_RLatLon0.09_PT053H.grib2 2026-05-08 02:56 377K
20260508T00Z_MSC_RDPS_WindSpeed_IsbL-0175_RLatLon0.09_PT053H.grib2 2026-05-08 02:56 403K
20260508T00Z_MSC_RDPS_WindSpeed_IsbL-0200_RLatLon0.09_PT053H.grib2 2026-05-08 02:56 438K
20260508T00Z_MSC_RDPS_WindSpeed_IsbL-0225_RLatLon0.09_PT053H.grib2 2026-05-08 02:56 444K
20260508T00Z_MSC_RDPS_WindSpeed_IsbL-0250_RLatLon0.09_PT053H.grib2 2026-05-08 02:56 449K
20260508T00Z_MSC_RDPS_WindSpeed_IsbL-0275_RLatLon0.09_PT053H.grib2 2026-05-08 02:56 468K
20260508T00Z_MSC_RDPS_WindSpeed_IsbL-0300_RLatLon0.09_PT053H.grib2 2026-05-08 02:56 465K
20260508T00Z_MSC_RDPS_WindSpeed_IsbL-0350_RLatLon0.09_PT053H.grib2 2026-05-08 02:56 475K
20260508T00Z_MSC_RDPS_WindSpeed_IsbL-0400_RLatLon0.09_PT053H.grib2 2026-05-08 02:56 480K
20260508T00Z_MSC_RDPS_WindSpeed_IsbL-0450_RLatLon0.09_PT053H.grib2 2026-05-08 02:56 465K
20260508T00Z_MSC_RDPS_WindSpeed_IsbL-0500_RLatLon0.09_PT053H.grib2 2026-05-08 02:56 466K
20260508T00Z_MSC_RDPS_WindSpeed_IsbL-0550_RLatLon0.09_PT053H.grib2 2026-05-08 02:56 466K
20260508T00Z_MSC_RDPS_WindSpeed_IsbL-0600_RLatLon0.09_PT053H.grib2 2026-05-08 02:56 593K
20260508T00Z_MSC_RDPS_WindSpeed_IsbL-0650_RLatLon0.09_PT053H.grib2 2026-05-08 02:56 612K
20260508T00Z_MSC_RDPS_WindSpeed_IsbL-0700_RLatLon0.09_PT053H.grib2 2026-05-08 02:56 681K
20260508T00Z_MSC_RDPS_WindSpeed_IsbL-0750_RLatLon0.09_PT053H.grib2 2026-05-08 02:56 714K
20260508T00Z_MSC_RDPS_WindSpeed_IsbL-0800_RLatLon0.09_PT053H.grib2 2026-05-08 02:56 763K
20260508T00Z_MSC_RDPS_WindSpeed_IsbL-0850_RLatLon0.09_PT053H.grib2 2026-05-08 02:56 818K
20260508T00Z_MSC_RDPS_WindSpeed_IsbL-0875_RLatLon0.09_PT053H.grib2 2026-05-08 02:56 837K
20260508T00Z_MSC_RDPS_WindSpeed_IsbL-0900_RLatLon0.09_PT053H.grib2 2026-05-08 02:56 852K
20260508T00Z_MSC_RDPS_WindSpeed_IsbL-0925_RLatLon0.09_PT053H.grib2 2026-05-08 02:56 860K
20260508T00Z_MSC_RDPS_WindSpeed_IsbL-0950_RLatLon0.09_PT053H.grib2 2026-05-08 02:56 864K
20260508T00Z_MSC_RDPS_WindSpeed_IsbL-0970_RLatLon0.09_PT053H.grib2 2026-05-08 02:56 863K
20260508T00Z_MSC_RDPS_WindSpeed_IsbL-0985_RLatLon0.09_PT053H.grib2 2026-05-08 02:56 858K
20260508T00Z_MSC_RDPS_WindSpeed_IsbL-1000_RLatLon0.09_PT053H.grib2 2026-05-08 02:56 852K
20260508T00Z_MSC_RDPS_WindSpeed_IsbL-1015_RLatLon0.09_PT053H.grib2 2026-05-08 02:56 843K
20260508T00Z_MSC_RDPS_WindU_AGL-10m_RLatLon0.09_PT053H.grib2 2026-05-08 02:56 432K
20260508T00Z_MSC_RDPS_WindU_AGL-120m_RLatLon0.09_PT053H.grib2 2026-05-08 02:56 535K
20260508T00Z_MSC_RDPS_WindU_AGL-40m_RLatLon0.09_PT053H.grib2 2026-05-08 02:56 540K
20260508T00Z_MSC_RDPS_WindU_AGL-80m_RLatLon0.09_PT053H.grib2 2026-05-08 02:56 537K
20260508T00Z_MSC_RDPS_WindU_IsbL-0001_RLatLon0.09_PT053H.grib2 2026-05-08 02:56 243K
20260508T00Z_MSC_RDPS_WindU_IsbL-0005_RLatLon0.09_PT053H.grib2 2026-05-08 02:56 287K
20260508T00Z_MSC_RDPS_WindU_IsbL-0010_RLatLon0.09_PT053H.grib2 2026-05-08 02:56 297K
20260508T00Z_MSC_RDPS_WindU_IsbL-0020_RLatLon0.09_PT053H.grib2 2026-05-08 02:56 313K
20260508T00Z_MSC_RDPS_WindU_IsbL-0030_RLatLon0.09_PT053H.grib2 2026-05-08 02:56 310K
20260508T00Z_MSC_RDPS_WindU_IsbL-0050_RLatLon0.09_PT053H.grib2 2026-05-08 02:56 337K
20260508T00Z_MSC_RDPS_WindU_IsbL-0100_RLatLon0.09_PT053H.grib2 2026-05-08 02:56 430K
20260508T00Z_MSC_RDPS_WindU_IsbL-0150_RLatLon0.09_PT053H.grib2 2026-05-08 02:56 369K
20260508T00Z_MSC_RDPS_WindU_IsbL-0175_RLatLon0.09_PT053H.grib2 2026-05-08 02:56 418K
20260508T00Z_MSC_RDPS_WindU_IsbL-0200_RLatLon0.09_PT053H.grib2 2026-05-08 02:56 431K
20260508T00Z_MSC_RDPS_WindU_IsbL-0225_RLatLon0.09_PT053H.grib2 2026-05-08 02:56 436K
20260508T00Z_MSC_RDPS_WindU_IsbL-0250_RLatLon0.09_PT053H.grib2 2026-05-08 02:56 340K
20260508T00Z_MSC_RDPS_WindU_IsbL-0275_RLatLon0.09_PT053H.grib2 2026-05-08 02:56 355K
20260508T00Z_MSC_RDPS_WindU_IsbL-0300_RLatLon0.09_PT053H.grib2 2026-05-08 02:56 350K
20260508T00Z_MSC_RDPS_WindU_IsbL-0350_RLatLon0.09_PT053H.grib2 2026-05-08 02:56 461K
20260508T00Z_MSC_RDPS_WindU_IsbL-0400_RLatLon0.09_PT053H.grib2 2026-05-08 02:56 467K
20260508T00Z_MSC_RDPS_WindU_IsbL-0450_RLatLon0.09_PT053H.grib2 2026-05-08 02:56 470K
20260508T00Z_MSC_RDPS_WindU_IsbL-0500_RLatLon0.09_PT053H.grib2 2026-05-08 02:56 472K
20260508T00Z_MSC_RDPS_WindU_IsbL-0550_RLatLon0.09_PT053H.grib2 2026-05-08 02:56 456K
20260508T00Z_MSC_RDPS_WindU_IsbL-0600_RLatLon0.09_PT053H.grib2 2026-05-08 02:56 465K
20260508T00Z_MSC_RDPS_WindU_IsbL-0650_RLatLon0.09_PT053H.grib2 2026-05-08 02:56 483K
20260508T00Z_MSC_RDPS_WindU_IsbL-0700_RLatLon0.09_PT053H.grib2 2026-05-08 02:56 506K
20260508T00Z_MSC_RDPS_WindU_IsbL-0750_RLatLon0.09_PT053H.grib2 2026-05-08 02:56 535K
20260508T00Z_MSC_RDPS_WindU_IsbL-0800_RLatLon0.09_PT053H.grib2 2026-05-08 02:56 577K
20260508T00Z_MSC_RDPS_WindU_IsbL-0850_RLatLon0.09_PT053H.grib2 2026-05-08 02:56 625K
20260508T00Z_MSC_RDPS_WindU_IsbL-0875_RLatLon0.09_PT053H.grib2 2026-05-08 02:56 642K
20260508T00Z_MSC_RDPS_WindU_IsbL-0900_RLatLon0.09_PT053H.grib2 2026-05-08 02:56 654K
20260508T00Z_MSC_RDPS_WindU_IsbL-0925_RLatLon0.09_PT053H.grib2 2026-05-08 02:56 660K
20260508T00Z_MSC_RDPS_WindU_IsbL-0950_RLatLon0.09_PT053H.grib2 2026-05-08 02:56 660K
20260508T00Z_MSC_RDPS_WindU_IsbL-0970_RLatLon0.09_PT053H.grib2 2026-05-08 02:56 795K
20260508T00Z_MSC_RDPS_WindU_IsbL-0985_RLatLon0.09_PT053H.grib2 2026-05-08 02:56 790K
20260508T00Z_MSC_RDPS_WindU_IsbL-1000_RLatLon0.09_PT053H.grib2 2026-05-08 02:56 784K
20260508T00Z_MSC_RDPS_WindU_IsbL-1015_RLatLon0.09_PT053H.grib2 2026-05-08 02:56 824K
20260508T00Z_MSC_RDPS_WindV_AGL-10m_RLatLon0.09_PT053H.grib2 2026-05-08 02:56 432K
20260508T00Z_MSC_RDPS_WindV_AGL-120m_RLatLon0.09_PT053H.grib2 2026-05-08 02:56 536K
20260508T00Z_MSC_RDPS_WindV_AGL-40m_RLatLon0.09_PT053H.grib2 2026-05-08 02:56 539K
20260508T00Z_MSC_RDPS_WindV_AGL-80m_RLatLon0.09_PT053H.grib2 2026-05-08 02:56 538K
20260508T00Z_MSC_RDPS_WindV_IsbL-0001_RLatLon0.09_PT053H.grib2 2026-05-08 02:56 245K
20260508T00Z_MSC_RDPS_WindV_IsbL-0005_RLatLon0.09_PT053H.grib2 2026-05-08 02:56 286K
20260508T00Z_MSC_RDPS_WindV_IsbL-0010_RLatLon0.09_PT053H.grib2 2026-05-08 02:56 298K
20260508T00Z_MSC_RDPS_WindV_IsbL-0020_RLatLon0.09_PT053H.grib2 2026-05-08 02:56 314K
20260508T00Z_MSC_RDPS_WindV_IsbL-0030_RLatLon0.09_PT053H.grib2 2026-05-08 02:56 310K
20260508T00Z_MSC_RDPS_WindV_IsbL-0050_RLatLon0.09_PT053H.grib2 2026-05-08 02:56 336K
20260508T00Z_MSC_RDPS_WindV_IsbL-0100_RLatLon0.09_PT053H.grib2 2026-05-08 02:56 426K
20260508T00Z_MSC_RDPS_WindV_IsbL-0150_RLatLon0.09_PT053H.grib2 2026-05-08 02:56 392K
20260508T00Z_MSC_RDPS_WindV_IsbL-0175_RLatLon0.09_PT053H.grib2 2026-05-08 02:56 416K
20260508T00Z_MSC_RDPS_WindV_IsbL-0200_RLatLon0.09_PT053H.grib2 2026-05-08 02:56 332K
20260508T00Z_MSC_RDPS_WindV_IsbL-0225_RLatLon0.09_PT053H.grib2 2026-05-08 02:56 338K
20260508T00Z_MSC_RDPS_WindV_IsbL-0250_RLatLon0.09_PT053H.grib2 2026-05-08 02:56 366K
20260508T00Z_MSC_RDPS_WindV_IsbL-0275_RLatLon0.09_PT053H.grib2 2026-05-08 02:56 379K
20260508T00Z_MSC_RDPS_WindV_IsbL-0300_RLatLon0.09_PT053H.grib2 2026-05-08 02:56 376K
20260508T00Z_MSC_RDPS_WindV_IsbL-0350_RLatLon0.09_PT053H.grib2 2026-05-08 02:56 360K
20260508T00Z_MSC_RDPS_WindV_IsbL-0400_RLatLon0.09_PT053H.grib2 2026-05-08 02:56 364K
20260508T00Z_MSC_RDPS_WindV_IsbL-0450_RLatLon0.09_PT053H.grib2 2026-05-08 02:56 366K
20260508T00Z_MSC_RDPS_WindV_IsbL-0500_RLatLon0.09_PT053H.grib2 2026-05-08 02:56 469K
20260508T00Z_MSC_RDPS_WindV_IsbL-0550_RLatLon0.09_PT053H.grib2 2026-05-08 02:56 469K
20260508T00Z_MSC_RDPS_WindV_IsbL-0600_RLatLon0.09_PT053H.grib2 2026-05-08 02:56 478K
20260508T00Z_MSC_RDPS_WindV_IsbL-0650_RLatLon0.09_PT053H.grib2 2026-05-08 02:56 479K
20260508T00Z_MSC_RDPS_WindV_IsbL-0700_RLatLon0.09_PT053H.grib2 2026-05-08 02:56 502K
20260508T00Z_MSC_RDPS_WindV_IsbL-0750_RLatLon0.09_PT053H.grib2 2026-05-08 02:56 531K
20260508T00Z_MSC_RDPS_WindV_IsbL-0800_RLatLon0.09_PT053H.grib2 2026-05-08 02:56 574K
20260508T00Z_MSC_RDPS_WindV_IsbL-0850_RLatLon0.09_PT053H.grib2 2026-05-08 02:56 621K
20260508T00Z_MSC_RDPS_WindV_IsbL-0875_RLatLon0.09_PT053H.grib2 2026-05-08 02:56 638K
20260508T00Z_MSC_RDPS_WindV_IsbL-0900_RLatLon0.09_PT053H.grib2 2026-05-08 02:56 650K
20260508T00Z_MSC_RDPS_WindV_IsbL-0925_RLatLon0.09_PT053H.grib2 2026-05-08 02:56 658K
20260508T00Z_MSC_RDPS_WindV_IsbL-0950_RLatLon0.09_PT053H.grib2 2026-05-08 02:56 659K
20260508T00Z_MSC_RDPS_WindV_IsbL-0970_RLatLon0.09_PT053H.grib2 2026-05-08 02:56 656K
20260508T00Z_MSC_RDPS_WindV_IsbL-0985_RLatLon0.09_PT053H.grib2 2026-05-08 02:56 791K
20260508T00Z_MSC_RDPS_WindV_IsbL-1000_RLatLon0.09_PT053H.grib2 2026-05-08 02:56 785K
20260508T00Z_MSC_RDPS_WindV_IsbL-1015_RLatLon0.09_PT053H.grib2 2026-05-08 02:56 825K